Regional Weather Roundup
Issued by NWS

Home | Current Version | Previous Version | Graphics & Text | Print | Product List | Glossary On
Versions: 1 2 3 4 5 6 7 8 9 10 11 12 13 14 15 16 17 18 19 20 21 22 23 24 25 26 27 28 29 30 31 32 33 34 35 36 37 38 39 40 41 42 43 44 45 46 47 48 49
000
ASUS45 KCYS 030110
RWRWY

WYOMING REGIONAL WEATHER ROUNDUP
NATIONAL WEATHER SERVICE CHEYENNE WY
700 PM MDT THU JUL 02 2015

NOTE:  "FAIR" INDICATES FEW OR NO CLOUDS BELOW 12,000 FEET
WITH NO SIGNIFICANT WEATHER AND/OR OBSTRUCTIONS TO VISIBILITY.

WYZ001-030200-
YELLOWSTONE NATIONAL PARK

CITY           SKY/WX    TMP DP  RH WIND       PRES   REMARKS
LK YELLOWSTONE   N/A     75  37  25 VRB5      30.30F
W YELLOWSTONE  NOT AVBL

$$
WYZ002>013-054>058-071-098>099-030200-
NORTHERN WYOMING

CITY           SKY/WX    TMP DP  RH WIND       PRES   REMARKS
JACKSON        FAIR      82  30  15 W13       30.17S
CODY           PTSUNNY   79  50  36 N14G20    30.15S
GREYBULL       FAIR      88  45  22 N17       30.02F
WORLAND        FAIR      88  45  22 N9        30.03F
SHERIDAN       FAIR      81  53  37 NW9       30.10F
BUFFALO        PTSUNNY   73  54  51 N9        30.17F
GILLETTE       FAIR      76  53  44 NE8       30.12F
HULETT         MOCLDY    73  54  49 N5        30.14S
NEWCASTLE      FAIR      75  48  38 N8        30.12F

$$
WYZ014>020-022>026-101>103-030200-
CENTRAL WYOMING

CITY           SKY/WX    TMP DP  RH WIND       PRES   REMARKS
BIG PINEY      FAIR      85  39  19 N16G24    30.19F
PINEDALE       FAIR      82  34  17 NW13      30.21S
DUBOIS         FAIR      72  46  40 SE20      30.23S
LANDER         FAIR      80  50  34 NE3       30.13S
RIVERTON       FAIR      82  49  31 NE12      30.13F
CASPER         PTSUNNY   81  50  33 NE16G26   30.14S
DOUGLAS        FAIR      75  56  51 NE14      30.15S

$$
WYZ021-027>030-104>119-030200-
SOUTHERN WYOMING

CITY           SKY/WX    TMP DP  RH WIND       PRES   REMARKS
EVANSTON       FAIR      84  39  20 N16G23    30.21F
KEMMERER       FAIR     N/A N/A N/A NW15      30.22F
FORT BRIDGER   CLEAR     88  34  14 NW13G22   30.22S
ROCK SPRINGS   FAIR      77  47  34 E23       30.17S
DIXON          FAIR      82  43  25 N31G39    30.19R
RAWLINS        TSTM      64  50  60 N20G39    30.25R
SARATOGA       FAIR      73  50  43 CALM      30.23R
LARAMIE        FAIR      66  52  60 SE13      30.27S
CHEYENNE       CLOUDY    73  52  47 SE6       30.20F
TORRINGTON     FAIR      80  55  42 NE13      30.09R
PINE BLUFFS    FAIR      77  50  38 E8        30.16S

$$


USA.gov is the U.S. government's official web portal to all federal, state and local government web resources and services.